TimeEST,TemperatureF,Dew PointF,Humidity,Sea Level PressureIn,VisibilityMPH,Wind Direction,Wind SpeedMPH,Gust SpeedMPH,PrecipitationIn,Events,Conditions,WindDirDegrees,DateUTC
12:51 AM,37.0,30.0,76,29.61,10.0,WSW,4.6,-,N/A,,Mostly Cloudy,250,2013-03-01 05:51:00
1:51 AM,36.0,30.0,79,29.62,10.0,NNW,3.5,-,N/A,,Mostly Cloudy,330,2013-03-01 06:51:00
2:51 AM,36.0,30.0,79,29.62,10.0,WNW,5.8,-,N/A,,Mostly Cloudy,290,2013-03-01 07:51:00
3:51 AM,35.1,28.9,78,29.64,10.0,WNW,8.1,-,N/A,,Mostly Cloudy,290,2013-03-01 08:51:00
4:51 AM,36.0,28.9,76,29.65,10.0,Calm,Calm,-,N/A,,Partly Cloudy,0,2013-03-01 09:51:00
5:51 AM,35.1,28.9,78,29.66,10.0,SW,4.6,-,N/A,,Partly Cloudy,220,2013-03-01 10:51:00
6:51 AM,36.0,28.9,76,29.67,10.0,West,3.5,-,N/A,,Partly Cloudy,260,2013-03-01 11:51:00
7:51 AM,39.9,28.9,65,29.69,10.0,WNW,6.9,-,N/A,,Partly Cloudy,300,2013-03-01 12:51:00
8:51 AM,42.1,28.9,60,29.70,10.0,NW,8.1,-,N/A,,Mostly Cloudy,310,2013-03-01 13:51:00
9:51 AM,42.1,28.0,58,29.70,10.0,NW,10.4,-,N/A,,Mostly Cloudy,310,2013-03-01 14:51:00
10:51 AM,42.1,27.0,55,29.71,10.0,NNW,10.4,17.3,N/A,,Mostly Cloudy,330,2013-03-01 15:51:00
11:51 AM,44.1,27.0,51,29.70,10.0,NNW,12.7,-,N/A,,Overcast,340,2013-03-01 16:51:00
12:51 PM,45.0,26.1,48,29.69,10.0,NW,11.5,-,N/A,,Mostly Cloudy,310,2013-03-01 17:51:00
1:51 PM,46.0,26.1,46,29.69,10.0,NNW,13.8,21.9,N/A,,Overcast,330,2013-03-01 18:51:00
2:51 PM,44.1,25.0,47,29.69,10.0,NW,12.7,21.9,N/A,,Overcast,310,2013-03-01 19:51:00
3:51 PM,44.1,25.0,47,29.70,10.0,NW,12.7,25.3,0.00,,Overcast,310,2013-03-01 20:51:00
4:51 PM,43.0,27.0,53,29.71,10.0,NW,15.0,23.0,N/A,,Overcast,320,2013-03-01 21:51:00
5:51 PM,42.1,28.0,58,29.73,10.0,NW,12.7,24.2,N/A,,Overcast,310,2013-03-01 22:51:00
6:51 PM,41.0,27.0,57,29.75,10.0,NW,19.6,26.5,N/A,,Overcast,310,2013-03-01 23:51:00
7:51 PM,39.9,27.0,60,29.76,10.0,NW,16.1,24.2,N/A,,Overcast,320,2013-03-02 00:51:00
8:51 PM,39.9,25.0,55,29.77,10.0,NNW,16.1,21.9,N/A,,Overcast,330,2013-03-02 01:51:00
9:51 PM,39.0,25.0,57,29.78,10.0,NNW,12.7,-,N/A,,Overcast,330,2013-03-02 02:51:00
10:51 PM,37.9,25.0,60,29.79,10.0,NW,11.5,23.0,N/A,,Overcast,310,2013-03-02 03:51:00
11:51 PM,37.0,24.1,59,29.78,10.0,NW,15.0,23.0,N/A,,Overcast,310,2013-03-02 04:51:00